Home   Weather   Osterholz-Scharmbeck   Past weeks

Flag for Germany Past Weather in Osterholz-Scharmbeck, Lower Saxony, Germany — Yesterday and Last 2 Weeks

Now
32 °F

Passing clouds.


Feels Like: 32 °F
Forecast: 26 / 35 °F
Wind: No wind

Location: Bremen Airport

Current Time: Jan 20, 2017 at 7:30:45 pm

Latest Report: Jan 20, 2017 at 6:50 pm


Visibility: N/A

Pressure: 30.57 "Hg

Humidity: 93%

Dew Point: 30 °F

Location of Osterholz-ScharmbeckLocation

Past Weather in Osterholz-Scharmbeck — Graph

°F

Osterholz-Scharmbeck Temperature Yesterday

Maximum temperature yesterday: 34 °F (at 2:20 pm)
Minimum temperature yesterday: 23 °F (at 9:50 pm)
Average temperature yesterday: 28 °F

High & Low Weather Summary for the Past Weeks

 TemperatureHumidityPressure
High45 °F (Jan 11, 2:20 pm)100% (Jan 7, 11:50 am)30.77 "Hg (Jan 7, 11:50 am)
Low14 °F (Jan 6, 3:50 am)59% (Jan 6, 12:50 pm)29.00 "Hg (Jan 13, 3:50 am)
Average30 °F89%30.18 "Hg
* Reported Jan 5 6:20 pm — Jan 20 6:20 pm, Osterholz-Scharmbeck, Weather by CustomWeather, © 2017

Note: Actual official high and low records may vary slightly from our data, if they occured in-between our weather recording intervals... More about our weather records

Advertising

Osterholz-Scharmbeck Weather History for the Previous 24 Hours

Scroll right to see more
 ConditionsComfort  
Time TempWeatherWind HumidityBarometerVisibility
6:20 pm
Fri, Jan 20
34 °FPassing clouds.No wind87%30.57 "HgN/A
5:50 pm34 °FPassing clouds.1 mph87%30.57 "HgN/A
5:20 pm34 °FPassing clouds.1 mph87%30.57 "HgN/A
4:50 pm34 °FPassing clouds.1 mph87%30.57 "HgN/A
4:20 pm34 °FDrizzle. Partly sunny.1 mph87%30.57 "HgN/A
3:50 pm34 °FDrizzle. Broken clouds.No wind81%30.57 "HgN/A
3:20 pm34 °FPartly sunny.1 mph81%30.57 "HgN/A
2:50 pm34 °FPartly sunny.1 mph81%30.57 "HgN/A
2:20 pm34 °FPartly sunny.1 mph81%30.57 "HgN/A
1:50 pm34 °FOvercast.1 mph75%30.57 "HgN/A
1:20 pm32 °FOvercast.No wind80%30.60 "HgN/A
12:50 pm32 °FOvercast.2 mph75%30.60 "HgN/A
12:20 pm32 °FOvercast.No wind75%30.60 "HgN/A
11:50 am30 °FPartly sunny.2 mph75%30.60 "HgN/A
11:20 am30 °FPartly sunny.No wind80%30.63 "HgN/A
10:50 am28 °FPartly sunny.No wind80%30.63 "HgN/A
10:20 am27 °FPartly sunny.No wind86%30.63 "HgN/A
9:50 am27 °FPartly sunny.2 mph86%30.63 "HgN/A
9:20 am25 °FPartly sunny.3 mph86%30.63 "HgN/A
8:50 am23 °FPartly sunny.2 mph93%30.63 "HgN/A
8:20 am21 °FPartly cloudy.2 mph93%30.63 "Hg5 mi
7:50 am21 °FPassing clouds.No wind93%30.60 "Hg5 mi
7:20 am19 °FClear.1 mph100%30.60 "Hg10 mi
6:50 am19 °FFog.2 mph93%30.60 "HgN/A
6:20 am19 °FFog.1 mph93%30.60 "HgN/A
5:50 am19 °FFog.No wind93%30.63 "HgN/A
5:20 am21 °FClear.No wind93%30.63 "Hg10 mi
4:50 am19 °FClear.2 mph93%30.63 "Hg10 mi
4:20 am19 °FPassing clouds.3 mph93%30.63 "HgN/A
3:50 am21 °FLight fog.No wind93%30.63 "Hg4 mi
3:20 am21 °FIce fog.1 mph93%30.63 "Hg2 mi
2:50 am21 °FIce fog.1 mph100%30.63 "Hg1 mi
2:20 am21 °FIce fog.No wind100%30.63 "Hg1 mi
1:50 am19 °FIce fog.2 mph100%30.63 "Hg1 mi
12:50 am21 °FIce fog.No wind93%30.66 "Hg0 mi
12:20 am21 °FIce fog.No wind100%30.66 "Hg0 mi
11:50 pm
Thu, Jan 19
23 °FIce fog.No wind93%30.66 "Hg1 mi
11:20 pm23 °FIce fog.No wind93%30.66 "Hg1 mi
10:50 pm23 °FIce fog.No wind100%30.66 "Hg1 mi
10:20 pm23 °FIce fog.2 mph100%30.66 "Hg1 mi
9:50 pm23 °FIce fog.No wind100%30.66 "Hg1 mi
9:20 pm25 °FIce fog.No wind100%30.66 "Hg1 mi
8:50 pm27 °FLight fog.1 mph93%30.66 "Hg4 mi
8:20 pm25 °FLight fog.3 mph100%30.66 "Hg4 mi
7:50 pm27 °FLight fog.2 mph100%30.66 "HgN/A
7:20 pm27 °FLight fog.2 mph100%30.66 "HgN/A
Weather by CustomWeather, © 2017

See weather overviewHow to use our weather pages